Flag for Germany Weather past 2 weeks in Schwerin, Mecklenburg-Western Pomerania, Germany

Now
58 °F

Fog.


Feels Like: 58 °F
Forecast: 50 / 57 °F
Wind: 2 mph from East

Location: Schwerin

Current Time: Sep 21, 2014 at 2:32:43 AM

Latest Report: Sep 21, 2014 at 2:00 AM


Visibility: 2 mi

Pressure: 29.89 "Hg

Humidity: 95%

Dew point: 57 °F

Location of SchwerinLocation

Historic Weather in Schwerin — Graph

°F

Schwerin temperature yesterday

Maximum temperature yesterday: 74 °F (at 3:00 PM)
Minimum temperature yesterday: 54 °F (at 7:00 AM)
Average temperature yesterday: 61 °F

Past Weeks' High & Low Weather Summary

 TemperatureHumidityPressure
High80 °F (Sep 6, 3:00 PM)100% (Sep 8, 6:00 AM)30.23 "Hg (Sep 8, 6:00 AM)
Low50 °F (Sep 11, 7:00 AM)39% (Sep 6, 3:00 PM)29.85 "Hg (Sep 6, 6:00 PM)
Average63 °F80%30.04 "Hg
* Reported Sep 6 1:00 AM — Sep 21 1:00 AM, Schwerin, Weather by CustomWeather, © 2014

Note: Actual official high and low records may vary slightly from our data, if they occured in-between our weather recording intervals... More about our weather records

Advertising

Schwerin weather history for previous 24 hours

 ConditionsComfort  
Time TempWeatherWind HumidityBarometerVisibility
1:00 AM
Sep 21
58 °FLow clouds.2 mph97%29.89 "Hg1 mi
12:00 AM59 °FPassing clouds.1 mph98%29.89 "Hg1 mi
10:00 PM
Sep 20
60 °FFog.1 mph97%29.90 "Hg1 mi
9:00 PM62 °FFog.2 mph93%29.90 "Hg2 mi
8:00 PM64 °FFog.1 mph88%29.90 "Hg3 mi
3:00 PM74 °FPartly sunny.1 mph57%29.91 "Hg10 mi
2:00 PM71 °FOvercast.2 mph60%29.92 "Hg9 mi
1:00 PM70 °FScattered clouds.2 mph62%29.93 "Hg7 mi
12:00 PM68 °FScattered clouds.1 mph66%29.93 "Hg5 mi
11:00 AM64 °FPartly sunny.1 mph79%29.94 "Hg3 mi
10:00 AM62 °FFog.1 mph90%29.94 "Hg2 mi
9:00 AM59 °FFog.1 mph98%29.94 "Hg1 mi
8:00 AM56 °FFog.1 mph98%29.93 "Hg1 mi
7:00 AM54 °FPartly sunny.1 mph98%29.93 "Hg1 mi
6:00 AM55 °FPassing clouds.1 mph99%29.93 "Hg1 mi
5:00 AM55 °FPassing clouds.1 mph98%29.94 "Hg1 mi
4:00 AM56 °FFog.1 mph98%29.93 "Hg2 mi
3:00 AM57 °FFog.2 mph98%29.94 "Hg2 mi
2:00 AM57 °FFog.1 mph97%29.93 "Hg2 mi
Weather by CustomWeather, © 2014

See weather overviewHow to use our weather pages